Regional Weather Roundup
Issued by NWS

Home | Current Version | Previous Version | Text Only | Print | Product List | Glossary Off
Versions: 1 2 3 4 5 6 7 8 9 10 11 12 13 14 15 16 17 18 19 20 21 22 23 24 25 26 27 28 29 30 31 32 33 34 35 36 37 38 39 40 41 42 43 44 45 46 47 48 49 50

000
ASUS43 KLSX 010910
RWRMO

WEATHER SUMMARY FOR MISSOURI
NATIONAL WEATHER SERVICE SPRINGFIELD MO
400 AM CDT TUE SEP 01 2015

NOTE: "FAIR" INDICATES FEW OR NO CLOUDS BELOW 12,000 FEET WITH NO
       SIGNIFICANT WEATHER AND/OR OBSTRUCTIONS TO VISIBILITY.
       CURRENT SKY AND/OR WEATHER CONDITIONS ARE NOT AVAILABLE FOR
       CHILLICOTHE AND FARMINGTON.

MOZ001>031-035>038-043-044-053-054-011000-
...NORTHERN AND WESTERN MISSOURI...

CITY           SKY/WX    TMP DP  RH WIND       PRES   REMARKS
KANSAS CTY INT CLEAR     73  68  84 S12       30.00R
KANSAS C DTWN  CLEAR     77  69  76 S9        29.99R
LEE`S SUMMIT   CLEAR     75  68  78 S10G20    30.01S
ST JOSEPH      CLEAR     73  69  87 S7        29.98R
CHILLICOTHE      N/A     70  68  93 CALM      30.01R
KIRKSVILLE     CLEAR     71  67  87 S7        30.03R

$$
MOZ066>068-077>081-088>096-101>105-011000-
...SOUTHWEST MISSOURI...

CITY           SKY/WX    TMP DP  RH WIND       PRES   REMARKS
SPRINGFIELD    CLEAR     71  66  84 S10       30.07S
JOPLIN         CLEAR     73  66  78 S9        30.04S

$$
MOZ032>034-039>042-045>050-055>058-069>072-011000-
...CENTRAL MISSOURI...

CITY           SKY/WX    TMP DP  RH WIND       PRES   REMARKS
COLUMBIA       CLEAR     71  69  93 S5        30.05S
JEFFERSON CITY CLEAR     74  68  81 SE5       30.04S
ROLLA          CLEAR     72  69  90 S10       30.07R
SEDALIA        CLEAR     73  67  81 S8        30.05R
WHITEMAN AFB   CLEAR     71  68  91 SW8       30.02R
WARRENSBURG    CLEAR     72  68  88 S6        30.02R
OSAGE BEACH    CLEAR     72  66  83 SE6       30.06S

$$
MOZ051-052-059>065-011000-
...EAST CENTRAL MISSOURI...

CITY           SKY/WX    TMP DP  RH WIND       PRES   REMARKS
ST LOUIS INTL  CLEAR     77  70  79 S5        30.07R
SPIRIT OF STL  CLEAR     71  70  96 CALM      30.05R
ST CHARLES     CLEAR     71  70  96 E5        30.05R FOG

$$
MOZ072>076-082>087-097>100-106>115-011000-
...SOUTH CENTRAL AND SOUTHEAST MISSOURI...

CITY           SKY/WX    TMP DP  RH WIND       PRES   REMARKS
CAPE GIRARDEAU CLEAR     67  66  97 CALM      30.08S
FARMINGTON     CLEAR     70  68  94 S6        30.12R
POPLAR BLUFF   CLEAR     68  67  96 CALM      30.07S FOG
WEST PLAINS    CLEAR     71  67  87 CALM      30.12R

$$


USA.gov is the U.S. government's official web portal to all federal, state and local government web resources and services.